CZ-6A R/B, 64961

Orbit data source: Space-Track

CZ-6A R/B, 64961 is space debris in LEO originally from a launch on Sun, 27 Jul 2025 UTC launched from the Taiyaun Space Center, China (TSC). Debris objects in space refer to the collection of defunct objects orbiting the Earth. Examples of debris include non-operational satellites, rocket bodies, and fragments generated from explosions, collisions, or faulty payload assembly.

Loading next visibility...
Identifier
64961, 2025-159F
Orbit
LEO
Country
Flag of CNCN / PRC
Related business
Manufacturer
SAST
Mission
Spacecraft
Bus & Motor
CZ-6A STAGE 2, YF-115
Mass
~6,000 kg wet, ~6,000 kg dry
Launch date (UTC)
2025-07-27 (11 months ago)
Launch vehicle
Unknown
Launch site
Taiyaun Space Center, China (TSC)
Object type
Payload
Rocket body
Debris
Shape & HBR
Unknown shape, 4.4 m
Radar Cross Section
Large (>1 m²)

Expand to show TLE details & history
Last TLE update: 15 hours ago

TLE from 15 hours ago
0 CZ-6A R/B
1 64961U 25159F   26171.34591417  .00000082  00000-0  46826-4 0  9999
2 64961  86.5058 268.5691 0102397 192.2731 167.5948 13.94069285 45662
Epoch: 2026-06-20T08:18Z
TLE epoch observation values (Epoch: 2026-06-20T08:18:06.984Z)
Latitude
0.00004°
Longitude
-124.52186°
Altitude
990.38 km
Speed
7.32 km/s
True Right ascension
17h 54m 16s
True Declination
0° 00' 00"
Sunlit
Object was in full shadow at epoch
Visualization orbit readout
Latitude
Unknown
Longitude
Unknown
Altitude
Unknown
Speed
Unknown
Apparent Right ascension
Unknown
Apparent Declination
Unknown
Sunlit
N/A
Visualization observer readout
Local Sidereal Time
10:20:25
Azimuth
Unknown
Elevation
Unknown
Doppler factor
Unknown
Orbital elements
Apogee altitude
986.067 km
Perigee altitude
836.781 km
Semi-major axis
7,289.561 km
Eccentricity
0.01024
Inclination
86.5058°
RAAN
268.5691°
Arg. of periapsis
192.2731°
True anomaly
167.84376°
Mean anomaly
167.5948°
Eccentric anomaly
167.71959°
Mean motion
3.48731 °/min
Orbital period
103.23 mins
BSTAR
0.000046826
Loading maneuver chart data...
Computing Atmospheric mass density...
Loading historical data...
Loading historical data...
Loading historical data...
Loading historical data...
Loading historical data...
Loading historical data...
Loading historical data...

Documentation

Showing up to 5 results
|